Back to catalog

STARLINK-37191

AliveCommunicationsVLEO
NORAD 68334·PAYLOAD·🇺🇸 United States

Launched Mar 22, 2026 from Cape Canaveral Space Force Station

Loading…

Next Passes (next 24 hours)

TLE

FreshSource: CelesTrak SupGP

Epoch: Sep 14, 2026, 21:16 UTC

1 68334C 26059P   26257.88659722  .00007004  00000+0  20704-3 0  2578
2 68334  53.1585 187.6998 0001457  88.8235  50.2261 15.34369137    11

Track STARLINK-37191 in real time with AllMySat

Download on the App Store